Skip Page Navigation
NASA JPL Caltech
NASA Logo - Jet Propulsion Laboratory + View the NASA Portal
+ Center for Near-Earth Object Studies
JPL Home Earth Solar System Stars & Galaxies Technology
JPL Solar System Dynamics
BODIES ORBITS EPHEMERIDES TOOLS PHYSICAL DATA DISCOVERY FAQ SITE MAP
IMPORTANT: The SSD Announcement email list is now available. Major changes are coming in the near future, including possible hostname and/or URL changes. To be notified of such changes, subscribe to this email list.

Please visit this page for more details.


JPL Small-Body Database Browser
Search: [ help ]  
15580 (2000 GE71)
Classification: Main-belt Asteroid          SPK-ID: 2015580
Ephemeris | Orbit Diagram | Orbital Elements | Mission Design | Physical Parameters | Discovery Circumstances | Close-Approach Data ]

[ show orbit diagram ]
Orbital Elements at Epoch 2459000.5 (2020-May-31.0) TDB
Reference: JPL 34 (heliocentric ecliptic J2000)
 Element Value Uncertainty (1-sigma)   Units 
e .04940491818337593 3.0115e-08  
a 2.624427341910917 1.0037e-08 au
q 2.494767723805593 8.0397e-08 au
i 7.387881266128024 4.455e-06 deg
node 208.0901476829862 2.5905e-05 deg
peri 270.2184459604867 5.2279e-05 deg
M 353.5459154217057 4.5778e-05 deg
tp 2459028.340844779408
(2020-Jun-27.84084478)
0.00019749 TDB
period 1552.924198467174
4.25
8.909e-06
2.439e-08
d
yr
n .2318207162689208 1.3299e-09 deg/d
Q 2.754086960016241 1.0533e-08 au
  Orbit Determination Parameters
   # obs. used (total)      2262  
   data-arc span      15803 days (43.27 yr)  
   first obs. used      1976-09-29  
   last obs. used      2020-01-05  
   planetary ephem.      DE431  
   SB-pert. ephem.      SB431-N16  
   condition code      0  
   norm. resid. RMS      .49377  
   source      ORB  
   producer      Otto Matic  
   solution date      2020-Jan-28 23:51:11  

Additional Information
 Earth MOID = 1.52422 au 
 Jupiter MOID = 2.29877 au 
 T_jup = 3.390 
[ show covariance matrix ]

Ephemeris | Orbit Diagram | Orbital Elements | Mission Design | Physical Parameters | Discovery Circumstances | Close-Approach Data ]

Physical Parameter Table
Parameter Symbol Value Units Sigma Reference Notes
absolute magnitude H 13.1   n/a MPO502288  
diameter diameter 11.028 km 0.101 urn:nasa:pds:neowise_diameters_albedos::2.0[mainbelt] (http://adsabs.harvard.edu/abs/2011ApJ...741...68M)  
geometric albedo albedo 0.100   0.006 urn:nasa:pds:neowise_diameters_albedos::2.0[mainbelt] (http://adsabs.harvard.edu/abs/2011ApJ...741...68M)  

15580 (2000 GE71)          Discovered 2000-Apr-05 by LINEAR at Socorro
Reference: 20000621/Numbers.arcLast Updated: 2004-04-19

[ show close-approach data ]
Alternate Designations
 2000 GE71 = 1976 SJ9 = 1976 UZ20 = 1989 UV4 
Ephemeris | Orbit Diagram | Orbital Elements | Mission Design | Physical Parameters | Discovery Circumstances | Close-Approach Data ]
ABOUT SSD CREDITS/AWARDS PRIVACY/COPYRIGHT GLOSSARY LINKS
FirstGov 2020-Feb-21 04:16 UT
(server date/time)  
NASA Home Page
Site Manager:   Ryan S. Park
Webmaster  Alan B. Chamberlin